Simultaneous Nadir Overpasses (SNOs) Predictions

Prediction of SNOs between GOES-16 and NPP Satellite Orbit:

Table of predicted SNOs for the next 14.0 days since TLE Epoch: 7/3/2021
Index Date Time (GOES-16) GOES-16 Lat,Lon NPP Lat,Lon Distance(km) Time Diff (sec)
1 07/04/2021 18:26:43 0.06, -75.13 -0.09, -75.77 73.15 80
2 07/05/2021 18:10:39 0.05, -75.14 0.95, -71.25 443.30 80
3 07/07/2021 06:29:48 -0.07, -75.13 0.22, -76.53 158.74 80
4 07/08/2021 06:13:44 -0.07, -75.13 -0.76, -71.99 357.74 80
5 07/09/2021 18:33:01 0.08, -75.14 -0.43, -77.30 245.76 80
6 07/10/2021 18:16:58 0.07, -75.15 0.61, -72.77 271.15 80
7 07/12/2021 06:36:07 -0.09, -75.15 0.55, -78.05 329.75 80
8 07/13/2021 06:20:03 -0.08, -75.16 -0.44, -73.51 187.36 80
9 07/14/2021 18:39:20 0.09, -75.18 -0.75, -78.82 415.41 80
10 07/15/2021 18:23:16 0.09, -75.19 0.29, -74.30 102.27 80
